Vertical_Velocity
-3 -3 -4 0 -2 -2 -1 1 -1 -1 0 0 -0 0 0 -1 -1 -0 -1 -1 -0 -1 -1 -0 0 -0 -1 -1 -2 -2 -2 -1 -2 -1 -2 -1 -1 0 -2 -0 0 -3 -2
0 -2 -3 -3 -2 -2 -1 0 0 -1 -0 -1 -1 0 -0 1 0 0 -0 -0 0 -1 -1 -1 -1 -2 -2 -1 -0 -2 -2 0 -1 0 -1 -2 -2 -1 0 -0 -2 -1 -2
0 -1 -2 -1 -2 -3 -0 -0 1 -1 -1 -2 0 1 -0 1 1 -1 -0 1 -1 -1 -2 -2 -1 -1 -2 -1 -2 -2 1 -2 0 -1 -2 3 -1 -3 -1 -1 -0 -0 1
-3 0 -2 -1 -0 -3 -0 -1 1 -1 -1 -2 -1 -1 -1 -0 0 1 -1 0 -1 -2 -2 -1 -1 -1 -2 -1 -1 -2 1 -2 5 2 -1 -1 1 1 -1 -2 -1 -2 -1
-1 0 -0 -0 -1 -1 -0 -1 1 -1 -0 -1 -2 0 -0 -2 -1 -0 0 0 -0 -0 -0 -3 -2 -1 1 -1 -1 -2 -0 0 -4 -1 4 -1 -2 0 -2 -1 -1 -1 -1
3 1 0 -1 -2 0 0 1 -0 0 -1 0 -1 -1 1 -1 -1 -0 0 -1 0 -1 -1 -1 -1 -1 -1 -1 -3 -2 -3 3 -1 -5 1 0 -0 -3 -1 -3 -3 -1 -2
-2 1 1 1 -1 0 0 -0 1 -0 -1 -0 -0 -1 -1 2 -2 -2 0 -0 3 -0 -2 -1 -2 -2 -1 -1 -1 -3 -1 4 -2 -6 -3 -3 -1 -1 -2 0 -0 -1 -2
-2 2 -2 1 -0 1 0 -1 -0 -1 -0 -1 -1 -2 -1 -1 1 -1 -1 2 2 2 -2 -1 -1 -1 -1 -1 -1 -3 -0 1 -5 1 -2 -0 -1 -2 -2 -1 -1 -1 -0
-2 -0 0 -0 -0 -0 -2 0 0 0 1 0 -1 -1 -1 1 -0 -0 -0 0 1 1 0 -2 -0 -1 -2 -0 -1 1 0 -2 -2 1 -2 -2 -1 0 -0 -1 -0 -1 -1
6 -3 1 0 1 1 -0 -1 -2 -0 -1 1 1 -0 -1 -1 0 2 -1 -0 1 -0 -1 -1 -3 -2 -1 -2 -3 8 -2 -1 -0 -0 1 1 1 0 -0 1 2 -0 -0
2 -1 0 2 -0 1 0 2 -0 -1 -0 -0 1 1 1 -0 -2 -0 3 -0 -1 -1 -1 -0 -1 0 -1 -2 -2 3 2 -3 1 -3 -2 -0 1 0 1 -1 0 -1 -2
-1 2 -0 -1 0 1 -0 1 1 0 2 0 1 1 1 -0 1 -1 -1 3 2 0 -0 -1 -1 -1 -1 -0 -2 3 -1 -2 -1 -0 1 0 -1 -1 0 -1 -1 -0 -0
-1 -3 -1 -0 0 0 1 -0 3 0 1 -1 2 2 -1 1 1 0 1 -1 -0 2 3 1 -1 -0 -3 -1 -5 9 -0 -3 2 -1 -1 -2 -1 -1 0 0 -3 -0 -4
-3 -1 -1 -1 -2 1 -2 2 -0 2 1 -0 2 2 -2 1 1 -0 -0 0 -1 -1 -0 1 1 2 0 -4 -7 8 -2 -4 -1 -2 -1 -1 -2 -1 -1 -2 -1 -0 -3
1 1 2 1 -2 4 2 1 2 2 2 -2 1 0 -0 1 -1 0 -1 2 -2 -0 -1 2 -1 -0 1 -2 -4 12 -2 -2 -4 -2 -2 -2 -2 -2 -2 -1 -0 -2 -0
-3 -1 2 2 -1 2 -0 1 0 -0 3 -3 0 1 -1 1 -2 1 -1 1 -0 0 1 -0 -1 -0 1 1 -4 2 4 -0 -1 -3 -0 -1 -2 -2 -2 -2 0 -1 -1
7 -1 2 4 -3 2 -2 3 1 5 3 -1 -2 -1 4 -3 0 -1 0 -1 -0 -0 1 1 1 -1 1 0 1 -5 2 6 1 0 -2 -2 -1 0 0 0 0 0 -0
-0 6 1 1 -2 -2 -0 6 4 3 2 3 -3 1 3 -2 -0 -1 1 1 -1 0 0 1 -0 0 1 -1 1 1 -7 -1 5 2 1 0 -3 -4 -1 -2 -0 1 -2
8 3 8 5 -1 -2 8 8 8 5 2 5 -0 -2 2 0 1 -2 -0 1 -1 1 -1 0 1 -0 1 -1 2 -0 -4 -2 -6 6 6 3 -0 -3 -2 -1 2 -1 -4
10 1 1 1 4 1 0 1 2 -4 -5 5 3 -1 2 -1 3 -2 -2 -1 -2 1 -1 0 -1 -1 1 1 -1 1 -1 -1 1 -3 -7 -1 13 6 2 -4 -0 2 -7
6 11 2 -2 8 4 5 8 2 5 3 8 4 2 -1 1 -1 1 -0 -1 -2 0 -0 -0 -1 -0 -2 3 -3 -2 1 2 0 0 2 -3 -7 -5 4 3 -1 1 -3
3 14 -0 -5 1 7 1 -3 -1 7 -1 6 4 5 1 -5 -4 5 1 -2 0 -1 0 -2 0 0 -3 -1 2 -1 -2 0 1 0 0 -1 5 -1 -11 3 -1 6 4
-13 5 15 -1 -0 0 -1 -2 1 -0 -3 -0 8 5 3 5 -3 2 3 -3 2 -0 1 -2 0 2 -2 1 1 0 -1 2 -3 4 3 -5 1 4 0 -6 -9 -5 5
-4 -9 3 4 3 2 4 -1 1 4 -4 3 4 5 16 6 -3 4 2 -0 3 4 -1 0 -2 3 -0 -2 2 -1 -2 5 -1 -7 3 -3 1 -6 2 -1 -3 -5 0
-10 -2 4 2 6 4 1 -1 -2 -1 -1 -0 6 10 8 2 1 3 2 -2 2 2 -3 -0 0 -1 -1 0 -2 -0 -4 -0 1 0 1 1 2 1 -11 1 3 -3 1
-6 14 9 4 12 12 11 7 5 -0 3 -4 3 3 10 10 2 2 3 4 -3 0 0 -3 -1 -0 3 -0 -3 -2 -1 -3 -2 1 5 2 1 3 -2 -9 -8 3 8
Height
5872 5873 5871 5871 5871 5870 5869 5868 5867 5866 5865 5864 5863 5862 5862 5861 5861 5860 5860 5860 5860 5860 5860 5859 5859 5859 5859 5859 5859 5859 5859 5859 5859 5859 5859 5859 5859 5859 5859 5859 5859 5858 5858
5870 5870 5870 5869 5869 5869 5868 5867 5866 5865 5864 5862 5862 5861 5861 5860 5859 5859 5860 5859 5859 5858 5858 5858 5857 5858 5858 5857 5857 5858 5858 5859 5859 5859 5859 5859 5859 5859 5859 5859 5859 5857 5856
5868 5868 5867 5867 5867 5867 5866 5865 5864 5863 5862 5861 5860 5859 5858 5859 5858 5858 5858 5858 5857 5856 5856 5856 5856 5856 5856 5856 5856 5857 5858 5857 5859 5858 5858 5859 5858 5858 5858 5858 5856 5855 5855
5866 5866 5865 5864 5864 5863 5863 5863 5862 5861 5860 5858 5858 5857 5857 5856 5856 5856 5856 5855 5855 5855 5854 5855 5855 5855 5855 5855 5856 5855 5856 5856 5858 5857 5857 5857 5857 5857 5856 5855 5854 5854 5853
5863 5862 5862 5861 5861 5860 5860 5860 5860 5859 5857 5856 5855 5855 5854 5854 5853 5854 5854 5853 5853 5853 5853 5854 5854 5854 5854 5854 5855 5855 5855 5856 5855 5857 5857 5856 5855 5855 5854 5853 5852 5851 5851
5860 5859 5859 5858 5857 5857 5857 5857 5857 5857 5855 5854 5853 5852 5852 5852 5851 5851 5851 5851 5851 5851 5852 5853 5853 5853 5853 5853 5853 5854 5854 5857 5853 5853 5854 5853 5853 5852 5852 5851 5850 5849 5848
5857 5855 5855 5855 5854 5854 5854 5854 5854 5854 5853 5852 5851 5850 5849 5849 5849 5849 5849 5849 5849 5850 5851 5851 5851 5852 5852 5852 5852 5852 5853 5856 5852 5850 5850 5850 5850 5849 5848 5847 5846 5845 5845
5852 5851 5852 5852 5851 5851 5850 5850 5850 5850 5850 5849 5848 5847 5847 5847 5847 5847 5847 5847 5847 5848 5849 5850 5850 5850 5850 5850 5849 5850 5852 5852 5850 5849 5849 5848 5848 5846 5845 5844 5843 5842 5841
5847 5846 5847 5847 5847 5848 5847 5847 5847 5847 5847 5846 5846 5845 5845 5844 5844 5845 5845 5845 5845 5845 5846 5847 5847 5847 5847 5847 5847 5848 5850 5846 5848 5846 5846 5845 5844 5843 5842 5840 5840 5838 5837
5842 5839 5841 5842 5843 5843 5843 5843 5843 5842 5843 5843 5842 5842 5842 5841 5841 5841 5841 5842 5842 5842 5842 5843 5844 5844 5844 5843 5843 5846 5846 5841 5844 5843 5842 5840 5840 5839 5839 5836 5835 5834 5832
5835 5835 5837 5838 5839 5839 5838 5838 5839 5839 5838 5839 5839 5839 5838 5837 5837 5837 5837 5837 5838 5839 5839 5839 5839 5840 5840 5840 5839 5842 5842 5839 5839 5839 5837 5836 5835 5834 5833 5831 5830 5829 5827
5828 5829 5831 5832 5833 5834 5834 5833 5834 5834 5834 5834 5834 5835 5834 5833 5832 5832 5833 5833 5833 5834 5834 5835 5835 5835 5835 5835 5834 5837 5837 5834 5834 5833 5831 5831 5830 5829 5828 5826 5825 5823 5822
5820 5820 5823 5826 5826 5827 5828 5828 5828 5828 5829 5829 5829 5830 5828 5828 5828 5828 5828 5828 5829 5829 5829 5829 5829 5830 5830 5829 5828 5832 5830 5829 5829 5828 5827 5826 5825 5824 5822 5821 5820 5818 5816
5814 5814 5816 5818 5819 5820 5822 5823 5822 5823 5824 5824 5824 5824 5822 5823 5823 5823 5822 5823 5823 5823 5823 5823 5823 5823 5823 5823 5823 5826 5825 5823 5822 5821 5820 5819 5819 5817 5816 5815 5814 5812 5810
5808 5808 5809 5811 5811 5813 5814 5816 5816 5817 5819 5817 5818 5819 5818 5818 5817 5817 5816 5817 5817 5817 5817 5817 5817 5817 5817 5816 5816 5818 5818 5817 5815 5814 5813 5812 5811 5810 5809 5808 5807 5805 5803
5801 5800 5801 5803 5804 5805 5807 5809 5809 5810 5812 5811 5811 5813 5812 5812 5811 5811 5811 5810 5810 5810 5810 5809 5810 5810 5809 5809 5808 5809 5811 5809 5808 5806 5805 5804 5803 5802 5801 5800 5799 5796 5794
5794 5792 5792 5793 5794 5795 5798 5799 5801 5802 5804 5804 5803 5805 5805 5805 5805 5804 5804 5804 5803 5802 5803 5803 5802 5802 5801 5801 5801 5800 5800 5801 5800 5799 5797 5796 5795 5793 5792 5791 5790 5788 5786
5783 5784 5782 5783 5784 5785 5789 5790 5791 5793 5795 5796 5797 5796 5797 5798 5797 5797 5797 5797 5795 5795 5795 5794 5794 5794 5794 5792 5793 5793 5791 5791 5792 5790 5789 5788 5787 5785 5784 5783 5781 5779 5777
5774 5773 5773 5773 5774 5774 5776 5779 5780 5781 5785 5788 5789 5788 5788 5789 5788 5788 5788 5789 5786 5787 5786 5785 5785 5785 5785 5784 5784 5784 5783 5782 5781 5782 5781 5780 5779 5777 5776 5774 5772 5769 5768
5763 5762 5763 5764 5765 5765 5765 5769 5770 5771 5775 5778 5780 5780 5779 5780 5780 5779 5780 5780 5778 5778 5777 5776 5776 5776 5775 5775 5775 5775 5775 5774 5772 5772 5770 5769 5769 5768 5767 5765 5763 5761 5759
5753 5754 5755 5753 5756 5755 5756 5755 5759 5762 5763 5767 5770 5770 5769 5770 5769 5771 5770 5768 5769 5769 5768 5767 5767 5767 5766 5766 5765 5764 5765 5765 5765 5764 5762 5761 5759 5759 5757 5755 5753 5752 5749
5743 5744 5744 5743 5743 5743 5744 5743 5745 5748 5750 5754 5757 5759 5758 5758 5758 5760 5761 5758 5759 5760 5759 5758 5758 5758 5757 5757 5756 5756 5755 5755 5754 5754 5753 5752 5751 5749 5746 5746 5744 5743 5740
5728 5732 5732 5734 5733 5732 5732 5732 5733 5733 5736 5742 5747 5749 5748 5747 5747 5749 5750 5747 5749 5750 5750 5749 5748 5748 5747 5748 5747 5747 5746 5745 5744 5744 5743 5741 5740 5739 5738 5735 5733 5732 5729
5715 5718 5718 5718 5717 5717 5719 5720 5721 5723 5726 5730 5734 5737 5736 5735 5735 5737 5738 5737 5739 5739 5738 5738 5738 5737 5737 5737 5738 5737 5736 5736 5735 5734 5734 5731 5730 5727 5726 5723 5721 5719 5716
5702 5702 5705 5702 5704 5704 5705 5707 5708 5710 5713 5716 5720 5723 5722 5723 5724 5724 5726 5726 5727 5727 5727 5727 5727 5727 5726 5726 5726 5726 5725 5724 5724 5724 5723 5721 5720 5716 5714 5712 5709 5706 5704
5691 5689 5691 5691 5690 5689 5690 5694 5696 5699 5701 5703 5707 5709 5710 5711 5711 5712 5713 5713 5713 5715 5716 5716 5715 5715 5715 5714 5713 5713 5713 5711 5710 5710 5709 5708 5706 5703 5699 5696 5694 5692 5691